ARIANE 5 R/B

Satellite information

Favourite Embed

Satellite Type and Status

ROCKET BODYIN ORBIT

Key statistics

Satellite ARIANE 5 R/B at a glance.

Uptime

7445

Days in orbit

Revolutions

≈ 14.8

Per day

Orbit

SSO

Sun Synchronous Orbit

Inclination

98.2

Latest

Satellite identification and parameters

Extended collection of information and parameters for ARIANE 5 R/B.

Object identification

Identified? True

Debris? False

Object name: ARIANE 5 R/B

International designator: 2004-049H

Object number (NORAD): 28499

Object ID (CCSDS): 28499

Country: FRANCE (FR)

Current information (Y/N): Y

RCS size: LARGE

Orbital parameters

Period: 97.008 minutes

Inclination: 98.2293 deg

SMA: 6993.541 km

Apoapsis: 674.283 km

Periapsis: 556.528 km

RAAN: 279.7892 deg

Eccentricy: 0.0084189

Argument of periapsis: 264.8578 deg

Mean anomaly: 94.3023 deg

Mean motion: 14.8442109 rev/day

Mean motion (dot): 0.00001322 rev/day2

B* drag term: 0.0001549 1/REarth

Two-line elements (TLE)

Creation date: May 7, 2025, 3:14 a.m.

Reference frame: TEME

Reference center: EARTH

Epoch: May 6, 2025, 10:39 p.m. UTC

TLE line 0: 0 ARIANE 5 R/B

TLE line 1: 1 28499U 04049H 25126.94376977 .00001322 00000-0 15490-3 0 9997

TLE line 2: 2 28499 98.2293 279.7892 0084189 264.8578 94.3023 14.84421090100275

Live tracking on map

Real-time ground track for satellite ARIANE 5 R/B.

In-orbit conjunctions

A list of the most updated potential collisions computed for object ARIANE 5 R/B.

Target Orbit TCA Probability of collision Miss distance Type
COSMOS 374 DEB LEO 2024-09-25 00:48:43 0.0003249123 169.0 (m) DEBRIS

Associated space launch

Helios and Essaim are French miltary satellites for observation of Earth. Parasol is an Earth Observation research satellite.Nanosat 01 is a small technologu demonstator for the spanish space agency INTA.

ARIANE 5 R/B was lifted into orbit during the mission ‘Ariane 5 G+ | Helios 2A, Essaim 1, 2, 3, 4, PARASOL, Nanosat 01’, on board a Ariane 5 G+ space rocket.

The launch took place on Dec. 18, 2004, 4:26 p.m. from Ariane Launch Area 3.

For more information about the launch, click the button.

Launch to space Ariane 5 G+ | Helios 2A, Essaim 1, 2, 3, 4, PARASOL, Nanosat 01
Ariane 5 G+ | Helios 2A, Essaim 1, 2, 3, 4, PARASOL, Nanosat 01

Agency: N/A

Status: Launch Successful

Launch date: Dec. 18, 2004, 4:26 p.m. UTC

Rocket: Ariane 5 G+

Launch pad: Ariane Launch Area 3

Location: Guiana Space Centre, French Guiana

...

Latest news about this satellite

There are no fresh news available about this satellite. Check back as we update our databases every day.


Newsletter sign-up

Weekly statistics, charts and insights to help you stay on top of the space industry.